CAPE
997 589 639 354 185 295 244 97 0 0 0 14 0 16 21 1 0 0 0 0 0 0 1 19 35 87 111 206 198 140 334 434 23 16 3 0 0 0 0 10 6 0 0
966 652 680 324 224 175 86 30 25 0 0 17 0 0 0 0 0 0 0 0 0 0 0 0 11 48 105 140 149 151 332 205 71 11 0 4 0 0 6 16 18 6 0
1173 785 579 375 469 217 110 50 0 0 0 0 0 0 0 0 0 0 0 0 0 0 0 0 0 0 29 48 95 124 80 99 37 6 0 14 8 15 17 24 18 19 2
1154 744 676 430 351 201 98 78 50 60 37 0 0 0 0 0 0 0 0 0 0 0 0 0 0 0 0 0 8 4 4 0 6 4 0 12 16 27 27 11 8 24 7
937 625 688 603 324 282 176 80 88 66 8 0 0 0 0 0 0 0 0 0 0 0 0 0 0 0 0 0 0 0 0 0 0 3 4 6 15 24 28 13 5 8 0
623 671 842 781 459 336 242 172 130 98 49 0 0 0 0 0 0 0 0 0 0 0 0 0 0 0 0 0 0 0 0 0 0 0 5 11 23 26 24 5 0 1 0
792 599 476 801 699 468 256 165 134 127 83 39 12 1 0 0 0 0 0 0 0 0 0 0 0 0 0 0 0 0 0 0 0 0 0 1 9 8 6 1 0 0 0
985 565 616 751 590 523 297 248 117 137 94 80 55 42 3 0 0 0 0 0 0 0 0 0 0 0 0 0 0 0 0 0 0 0 0 0 0 0 0 0 0 0 0
1114 958 667 932 892 561 303 215 136 115 30 104 55 68 49 5 0 0 0 0 0 0 0 0 0 0 0 0 0 0 0 0 0 0 0 0 0 0 0 0 0 0 0
1225 1118 906 856 693 503 301 150 61 20 14 37 95 63 76 45 8 0 0 0 0 0 0 0 0 0 0 0 0 0 0 0 0 0 0 0 0 0 0 0 0 0 0
1272 960 745 643 467 292 181 73 31 7 30 1 17 14 78 72 82 25 0 0 0 0 0 0 0 0 0 0 0 0 0 0 0 0 0 0 0 0 0 0 0 0 0
686 594 441 163 10 72 278 258 56 5 26 58 30 65 98 69 105 92 45 0 0 0 0 0 0 0 0 0 0 0 0 0 0 0 0 0 0 0 0 0 0 0 0
559 461 305 357 416 402 418 374 265 83 48 53 65 36 53 78 106 113 91 73 0 0 0 0 0 0 0 0 0 0 0 0 0 0 0 0 0 0 0 0 0 0 0
1017 554 564 518 376 657 403 264 289 514 249 96 103 112 75 76 173 155 104 131 58 25 0 0 0 0 0 0 0 0 0 0 0 0 0 0 0 0 0 0 0 0 0
258 115 105 203 215 181 191 142 92 98 134 298 370 381 227 247 257 234 122 187 54 48 4 2 0 0 0 0 0 0 0 0 0 0 0 0 0 0 0 0 0 0 0
0 0 15 20 19 5 0 1 0 0 4 21 107 230 382 456 181 275 211 122 144 58 43 0 0 0 0 0 0 0 0 0 0 0 0 0 0 0 0 0 0 0 0
0 0 0 0 5 0 0 0 0 0 0 0 2 4 53 81 99 276 232 157 139 114 78 72 8 0 0 0 0 0 0 0 0 0 0 0 0 0 0 0 0 0 0
0 0 0 0 0 0 0 0 0 2 2 1 4 1 4 4 44 119 259 205 162 72 137 84 58 1 0 0 0 0 0 0 0 0 0 0 0 0 0 0 0 0 0
19 15 2 0 0 0 0 0 0 1 5 4 6 1 4 9 17 109 175 163 135 156 74 43 36 17 1 1 0 0 0 0 0 0 0 0 0 0 0 0 0 0 0
93 74 39 2 5 15 2 0 5 0 0 0 3 4 0 5 3 9 26 54 87 45 76 66 65 34 17 4 4 0 0 0 0 0 0 0 0 0 0 0 0 0 0
0 74 176 73 73 63 50 37 22 0 0 0 8 27 29 28 34 20 26 43 44 42 32 75 110 73 13 29 21 3 0 0 2 0 6 0 0 0 0 0 0 0 0
0 0 0 61 74 59 80 66 40 18 0 0 0 5 9 5 33 59 57 49 35 10 22 12 10 69 88 24 52 36 33 12 25 8 0 0 0 0 0 0 0 0 4
0 0 0 0 8 49 82 84 69 47 2 0 0 0 8 19 27 76 90 12 2 0 0 0 0 0 1 29 43 62 23 32 34 0 0 0 0 0 0 0 9 14 20
0 0 0 0 7 21 27 66 87 88 33 0 0 0 0 1 39 76 81 69 0 1 0 0 0 11 21 34 34 25 29 30 21 0 0 0 0 0 0 1 6 25 27
0 0 0 0 1 41 45 32 45 45 24 2 3 10 15 4 4 11 58 92 17 0 3 8 12 1 6 0 2 1 5 14 21 0 0 0 2 0 0 4 5 1 3
7 0 0 0 7 37 40 38 40 26 22 12 7 8 18 20 24 3 0 25 34 5 19 27 30 2 1 1 1 0 0 1 7 5 0 0 0 10 6 0 3 1 12
CIN
-26 -43 -75 -60 -90 -47 -42 -105 0 0 0 -77 0 -8 -56 -40 0 0 0 0 0 0 -60 -161 -175 -118 -94 -35 -29 -29 0 0 -61 -31 0 0 0 0 0 -11 -4 0 0
-27 -66 -55 -73 -85 -63 -67 -124 -94 0 0 -83 -1 0 0 0 0 0 0 0 0 0 0 -3 -254 -142 -97 -61 -47 -24 0 -2 -26 -1 0 0 0 0 -1 -1 -3 -2 0
-42 -51 -88 -123 -65 -69 -51 -86 0 0 0 0 0 0 0 0 0 0 0 0 0 0 0 0 0 0 -167 -125 -43 -17 -9 -4 -20 0 0 0 -1 0 0 0 -1 -1 -2
-64 -106 -111 -76 -92 -80 -73 -87 -82 -84 -62 0 0 0 0 0 0 0 0 0 0 0 0 0 0 0 0 0 -58 -42 -33 0 0 0 0 0 -7 0 0 -1 0 0 0
-103 -139 -114 -73 -93 -67 -70 -77 -58 -46 -62 0 0 0 0 0 0 0 0 0 0 0 0 0 0 0 0 0 0 0 0 0 0 0 0 -6 -10 -2 0 -1 -1 -3 0
-156 -146 -95 -45 -42 -49 -39 -35 -33 -23 -46 -1 0 0 0 0 0 0 0 0 0 0 0 0 0 0 0 0 0 0 0 0 0 0 -5 -9 -4 -2 -6 -8 -1 0 0
-78 -132 -123 -29 -28 -27 -39 -35 -25 -24 -16 -22 -35 -3 0 0 0 0 0 0 0 0 0 0 0 0 0 0 0 0 0 0 0 0 0 -4 -5 0 0 -1 0 0 -1
-49 -118 -89 -20 -45 -43 -41 -61 -12 -2 -6 -8 -8 -7 -6 0 0 0 0 0 0 0 0 0 0 0 0 0 0 0 0 0 0 0 0 0 0 0 0 0 0 0 0
-49 -53 -82 -31 -42 -44 -15 -13 -19 -8 -7 -1 0 -8 0 -6 0 0 0 0 0 0 0 0 0 0 0 0 0 0 0 0 0 0 0 0 0 0 0 0 0 0 0
-45 -41 -34 -30 -29 -28 -55 -68 -55 -1 -2 -8 0 -1 0 0 0 0 0 0 0 0 0 0 0 0 0 0 0 0 0 0 0 0 0 0 0 0 0 0 0 0 0
-54 -73 -80 -84 -78 -84 -107 -112 -106 -37 -7 0 -18 -4 0 -3 0 -1 0 0 0 0 0 0 0 0 0 0 0 0 0 0 0 0 0 0 0 0 0 0 0 0 0
-136 -109 -90 -101 -74 -131 -92 -42 -66 -32 -36 -42 -50 -22 -2 0 0 0 -15 0 0 0 0 0 0 0 0 0 0 0 0 0 0 0 0 0 0 0 0 0 0 0 0
-115 -89 -119 -162 -112 -51 -49 -39 -21 -25 -24 -38 -27 -22 -15 -8 -4 0 -2 -4 0 0 0 0 0 0 0 0 0 0 0 0 0 0 0 0 0 0 0 0 0 0 0
-30 -98 -116 -127 -132 -53 -52 -56 -38 -6 -14 -32 -17 -17 -33 -20 -2 -2 -3 0 0 -15 0 0 0 0 0 0 0 0 0 0 0 0 0 0 0 0 0 0 0 0 0
-156 -224 -245 -193 -176 -157 -116 -127 -123 -102 -73 -33 -14 -1 -7 -11 -2 -7 -17 -1 -18 -12 -20 0 0 0 0 0 0 0 0 0 0 0 0 0 0 0 0 0 0 0 0
0 0 -350 -313 -283 -167 0 0 0 0 -44 -128 -77 -43 -6 0 -6 -5 0 0 -3 -15 -21 0 0 0 0 0 0 0 0 0 0 0 0 0 0 0 0 0 0 0 0
0 0 0 -12 -267 -6 0 0 0 0 0 0 0 -4 -78 -56 -48 -3 0 0 0 0 -4 -2 -17 0 0 0 0 0 0 0 0 0 0 0 0 0 0 0 0 0 0
-53 0 0 0 0 0 0 0 0 -2 0 0 0 0 0 -2 -61 -30 -1 0 0 -1 0 -1 -10 -3 0 0 0 0 0 0 0 0 0 0 0 0 0 0 0 0 0
-127 -125 -25 0 0 0 0 0 0 -9 -19 -19 -16 -8 0 -5 -29 -13 0 0 0 0 -2 -1 0 -1 -5 -1 0 0 0 0 0 0 0 0 0 0 0 0 0 0 0
-47 -28 -26 -13 -21 -27 -4 0 -9 0 -6 -6 -14 -7 0 -25 -7 -13 0 -9 -13 -1 -1 -3 -1 0 -3 0 -1 0 0 0 0 0 0 0 0 0 0 0 0 0 0
0 -39 -22 -15 -19 -22 -24 -15 -9 0 0 0 -17 -35 -34 -32 -21 -25 -23 -18 -15 -1 0 -1 0 0 0 0 -7 0 0 0 -6 0 0 0 0 0 0 0 0 0 0
0 0 0 -23 -20 -10 -7 -12 -13 -9 0 0 0 -78 -124 -103 -67 -34 -38 -36 -31 -31 -19 -41 -65 -9 -1 -19 -12 -28 0 -4 -7 -1 -1 0 0 0 0 0 0 0 -2
0 0 0 0 -14 -19 -21 -22 -20 -11 -6 0 0 0 0 -1 -78 -59 -42 -69 -2 -1 0 0 0 0 -38 -14 -8 -1 -2 -5 -5 0 0 0 0 0 0 0 -1 -2 0
0 0 0 0 -25 -23 -24 -32 -27 -25 -23 0 0 0 0 -1 -74 -51 -42 -39 0 -2 0 0 0 -15 -30 -10 -1 0 0 -1 0 0 0 0 0 0 -1 -2 -4 -7 -1
0 0 0 0 -2 -12 -25 -25 -26 -31 -7 -19 -13 -14 -12 -19 -50 -88 -49 -43 -20 0 -4 -1 -1 -1 -7 -1 0 0 -2 -1 -2 0 0 0 -2 0 -1 -2 -1 -1 -3
0 0 0 0 -1 -14 -30 -38 -24 -8 -5 -5 -6 -3 -10 -14 -8 -14 0 -15 -3 -1 0 0 -1 0 0 0 0 0 0 0 -2 -2 0 0 0 0 -2 0 -2 -16 -2
Wind_Speed
25 25 23 17 15 11 8 nan nan nan nan nan nan nan nan nan nan nan nan nan nan nan nan nan nan nan 9 9 10 9 10 10 nan nan nan nan nan nan nan nan nan nan nan
27 27 24 20 13 12 nan nan nan nan nan nan nan nan nan nan nan nan nan nan nan nan nan nan nan nan 15 16 16 16 13 10 nan nan nan nan nan nan nan nan nan nan nan
27 29 26 23 16 12 11 nan nan nan nan nan nan nan nan nan nan nan nan nan nan nan nan nan nan nan nan nan nan 20 nan nan nan nan nan nan nan nan nan nan nan nan nan
28 28 27 26 22 18 nan nan nan nan nan nan nan nan nan nan nan nan nan nan nan nan nan nan nan nan nan nan nan nan nan nan nan nan nan nan nan nan nan nan nan nan nan
30 27 25 25 25 24 21 nan nan nan nan nan nan nan nan nan nan nan nan nan nan nan nan nan nan nan nan nan nan nan nan nan nan nan nan nan nan nan nan nan nan nan nan
28 28 25 24 24 23 24 22 21 nan nan nan nan nan nan nan nan nan nan nan nan nan nan nan nan nan nan nan nan nan nan nan nan nan nan nan nan nan nan nan nan nan nan
26 22 23 23 23 22 19 24 29 24 nan nan nan nan nan nan nan nan nan nan nan nan nan nan nan nan nan nan nan nan nan nan nan nan nan nan nan nan nan nan nan nan nan
25 23 22 21 24 25 29 31 31 32 nan nan nan nan nan nan nan nan nan nan nan nan nan nan nan nan nan nan nan nan nan nan nan nan nan nan nan nan nan nan nan nan nan
22 21 19 23 27 29 31 29 28 29 nan 21 nan nan nan nan nan nan nan nan nan nan nan nan nan nan nan nan nan nan nan nan nan nan nan nan nan nan nan nan nan nan nan
26 24 22 20 25 27 28 29 nan nan nan nan nan nan nan nan nan nan nan nan nan nan nan nan nan nan nan nan nan nan nan nan nan nan nan nan nan nan nan nan nan nan nan
29 24 27 25 20 25 25 nan nan nan nan nan nan nan nan nan nan nan nan nan nan nan nan nan nan nan nan nan nan nan nan nan nan nan nan nan nan nan nan nan nan nan nan
30 30 27 29 nan nan 27 22 nan nan nan nan nan nan nan nan 21 nan nan nan nan nan nan nan nan nan nan nan nan nan nan nan nan nan nan nan nan nan nan nan nan nan nan
33 31 34 31 29 20 22 24 21 nan nan nan nan nan nan nan 21 19 nan nan nan nan nan nan nan nan nan nan nan nan nan nan nan nan nan nan nan nan nan nan nan nan nan
33 32 33 34 31 25 20 20 20 17 20 nan 15 10 nan nan 16 19 16 14 nan nan nan nan nan nan nan nan nan nan nan nan nan nan nan nan nan nan nan nan nan nan nan
35 31 30 28 27 27 23 20 nan nan 21 18 18 13 12 14 19 17 22 14 nan nan nan nan nan nan nan nan nan nan nan nan nan nan nan nan nan nan nan nan nan nan nan
nan nan nan nan nan nan nan nan nan nan nan nan 15 18 15 15 20 25 31 29 31 nan nan nan nan nan nan nan nan nan nan nan nan nan nan nan nan nan nan nan nan nan nan
nan nan nan nan nan nan nan nan nan nan nan nan nan nan nan nan nan 27 33 36 36 35 nan nan nan nan nan nan nan nan nan nan nan nan nan nan nan nan nan nan nan nan nan
nan nan nan nan nan nan nan nan nan nan nan nan nan nan nan nan nan 25 35 45 41 nan 33 nan nan nan nan nan nan nan nan nan nan nan nan nan nan nan nan nan nan nan nan
nan nan nan nan nan nan nan nan nan nan nan nan nan nan nan nan nan 37 42 38 40 40 nan nan nan nan nan nan nan nan nan nan nan nan nan nan nan nan nan nan nan nan nan
nan nan nan nan nan nan nan nan nan nan nan nan nan nan nan nan nan nan nan nan nan nan nan nan nan nan nan nan nan nan nan nan nan nan nan nan nan nan nan nan nan nan nan
nan nan 25 nan nan nan nan nan nan nan nan nan nan nan nan nan nan nan nan nan nan nan nan nan 52 nan nan nan nan nan nan nan nan nan nan nan nan nan nan nan nan nan nan
nan nan nan nan nan nan nan nan nan nan nan nan nan nan nan nan nan nan nan nan nan nan nan nan nan nan nan nan nan nan nan nan nan nan nan nan nan nan nan nan nan nan nan
nan nan nan nan nan nan nan nan nan nan nan nan nan nan nan nan nan nan nan nan nan nan nan nan nan nan nan nan nan nan nan nan nan nan nan nan nan nan nan nan nan nan nan
nan nan nan nan nan nan nan nan nan nan nan nan nan nan nan nan nan nan nan nan nan nan nan nan nan nan nan nan nan nan nan nan nan nan nan nan nan nan nan nan nan nan nan
nan nan nan nan nan nan nan nan nan nan nan nan nan nan nan nan nan nan nan nan nan nan nan nan nan nan nan nan nan nan nan nan nan nan nan nan nan nan nan nan nan nan nan
nan nan nan nan nan nan nan nan nan nan nan nan nan nan nan nan nan nan nan nan nan nan nan nan nan nan nan nan nan nan nan nan nan nan nan nan nan nan nan nan nan nan nan
Wind_Direction
346 351 346 3 3 345 341 nan nan nan nan nan nan nan nan nan nan nan nan nan nan nan nan nan nan nan 231 268 283 289 290 283 nan nan nan nan nan nan nan nan nan nan nan
340 345 353 345 346 337 nan nan nan nan nan nan nan nan nan nan nan nan nan nan nan nan nan nan nan nan 252 264 277 286 289 279 nan nan nan nan nan nan nan nan nan nan nan
340 340 339 344 334 333 331 nan nan nan nan nan nan nan nan nan nan nan nan nan nan nan nan nan nan nan nan nan nan 284 nan nan nan nan nan nan nan nan nan nan nan nan nan
337 335 332 332 337 337 nan nan nan nan nan nan nan nan nan nan nan nan nan nan nan nan nan nan nan nan nan nan nan nan nan nan nan nan nan nan nan nan nan nan nan nan nan
339 337 340 327 326 331 329 nan nan nan nan nan nan nan nan nan nan nan nan nan nan nan nan nan nan nan nan nan nan nan nan nan nan nan nan nan nan nan nan nan nan nan nan
340 342 338 331 327 328 323 321 308 nan nan nan nan nan nan nan nan nan nan nan nan nan nan nan nan nan nan nan nan nan nan nan nan nan nan nan nan nan nan nan nan nan nan
341 343 332 335 332 319 319 301 309 304 nan nan nan nan nan nan nan nan nan nan nan nan nan nan nan nan nan nan nan nan nan nan nan nan nan nan nan nan nan nan nan nan nan
335 334 336 334 334 319 319 324 323 309 nan nan nan nan nan nan nan nan nan nan nan nan nan nan nan nan nan nan nan nan nan nan nan nan nan nan nan nan nan nan nan nan nan
324 328 333 332 322 328 318 321 316 321 nan 285 nan nan nan nan nan nan nan nan nan nan nan nan nan nan nan nan nan nan nan nan nan nan nan nan nan nan nan nan nan nan nan
321 323 318 328 327 333 327 315 nan nan nan nan nan nan nan nan nan nan nan nan nan nan nan nan nan nan nan nan nan nan nan nan nan nan nan nan nan nan nan nan nan nan nan
308 304 309 309 322 326 328 nan nan nan nan nan nan nan nan nan nan nan nan nan nan nan nan nan nan nan nan nan nan nan nan nan nan nan nan nan nan nan nan nan nan nan nan
314 315 309 305 nan nan 317 323 nan nan nan nan nan nan nan nan 255 nan nan nan nan nan nan nan nan nan nan nan nan nan nan nan nan nan nan nan nan nan nan nan nan nan nan
316 320 307 298 291 294 299 312 319 nan nan nan nan nan nan nan 260 270 nan nan nan nan nan nan nan nan nan nan nan nan nan nan nan nan nan nan nan nan nan nan nan nan nan
314 312 307 301 298 291 289 294 302 309 319 nan 329 304 nan nan 278 277 273 270 nan nan nan nan nan nan nan nan nan nan nan nan nan nan nan nan nan nan nan nan nan nan nan
304 304 298 297 302 297 291 287 nan nan 300 292 293 301 306 296 285 271 277 258 nan nan nan nan nan nan nan nan nan nan nan nan nan nan nan nan nan nan nan nan nan nan nan
nan nan nan nan nan nan nan nan nan nan nan nan 297 291 280 294 294 315 318 308 305 nan nan nan nan nan nan nan nan nan nan nan nan nan nan nan nan nan nan nan nan nan nan
nan nan nan nan nan nan nan nan nan nan nan nan nan nan nan nan nan 297 306 300 296 293 nan nan nan nan nan nan nan nan nan nan nan nan nan nan nan nan nan nan nan nan nan
nan nan nan nan nan nan nan nan nan nan nan nan nan nan nan nan nan 281 283 283 280 nan 284 nan nan nan nan nan nan nan nan nan nan nan nan nan nan nan nan nan nan nan nan
nan nan nan nan nan nan nan nan nan nan nan nan nan nan nan nan nan 278 290 281 284 285 nan nan nan nan nan nan nan nan nan nan nan nan nan nan nan nan nan nan nan nan nan
nan nan nan nan nan nan nan nan nan nan nan nan nan nan nan nan nan nan nan nan nan nan nan nan nan nan nan nan nan nan nan nan nan nan nan nan nan nan nan nan nan nan nan
nan nan 295 nan nan nan nan nan nan nan nan nan nan nan nan nan nan nan nan nan nan nan nan nan 278 nan nan nan nan nan nan nan nan nan nan nan nan nan nan nan nan nan nan
nan nan nan nan nan nan nan nan nan nan nan nan nan nan nan nan nan nan nan nan nan nan nan nan nan nan nan nan nan nan nan nan nan nan nan nan nan nan nan nan nan nan nan
nan nan nan nan nan nan nan nan nan nan nan nan nan nan nan nan nan nan nan nan nan nan nan nan nan nan nan nan nan nan nan nan nan nan nan nan nan nan nan nan nan nan nan
nan nan nan nan nan nan nan nan nan nan nan nan nan nan nan nan nan nan nan nan nan nan nan nan nan nan nan nan nan nan nan nan nan nan nan nan nan nan nan nan nan nan nan
nan nan nan nan nan nan nan nan nan nan nan nan nan nan nan nan nan nan nan nan nan nan nan nan nan nan nan nan nan nan nan nan nan nan nan nan nan nan nan nan nan nan nan
nan nan nan nan nan nan nan nan nan nan nan nan nan nan nan nan nan nan nan nan nan nan nan nan nan nan nan nan nan nan nan nan nan nan nan nan nan nan nan nan nan nan nan